Погода в Новониколаевке

Украина / Херсонская область     46°13′39″N   32°44′09″E
темп.,
°C
ветер,
м/с
пор.,
м/с
влажн.,
%
обл.,
%
осадки,
мм/ч
давл.,
гПа
погр.,
м
11 апреля, вс
вс1100:00+6сз455714 0.0 102565
03:00+5с45565 0.0 102572
06:00+4ссв49595 0.0 1025138
09:00+9ссв610503 0.0 1026439
12:00+14ссв893834 0.0 10251553
15:00+15св893783 0.0 10241607
18:00+14св694329 0.0 1023992
21:00+11с41151100 0.0 1023201
12 апреля, пн
пн1200:00+9с51057100 0.0 1022203
03:00+8с4106088 0.0 1022199
06:00+8ссв4961100 0.0 1021291
09:00+8ссв3674100 0.2 1021310
12:00+10ссв2369100 0.1 1021484
15:00+10с1266100 0.1 1020500
18:00+10всв1170100 0.0 102079
21:00+8юз127590 0.0 102115
13 апреля, вт
вт1300:00+7юз2280100 0.0 102132
03:00+7зюз2284100 0.0 102124
06:00+7ю2282100 0.0 102123
09:00+10ю2272100 0.0 1021379
12:00+13ююз3362100 0.0 1021830
15:00+14ююз445421 0.0 1020870
18:00+11ююз33686 0.0 1020466
21:00+8ю33905 0.0 102053
14 апреля, ср
ср1400:00+7ю35935 0.0 101989
03:00+7ююз35945 0.0 101984
06:00+6ю229392 0.0 101823
09:00+10ю3577100 0.0 1018431
12:00+13ююв346195 0.0 1017820
15:00+15ююв3453100 0.0 10161059
18:00+12ююз2369100 0.0 1015200
21:00+10в1176100 0.0 101541
15 апреля, чт
чт1500:00+9ссв1179100 0.0 101420
03:00+9ссв1179100 0.0 101228
06:00+9юв1179100 0.1 101225
09:00+9юв3489100 0.8 1012227
12:00+9юв3692100 2.1 1011304
15:00+9юз7109095 2.2 1011569
18:00+9юз71085100 0.0 1011860
21:00+8ююз61189100 0.1 1011782